Location: Düngen
(52.0952°N, 10.0219°E)
Time: 16:05:04
(UTC+00:00)

Okean-O - Pass Details

Date: 11 March 2026
Orbit: 627 x 629 km, 97.9° (Epoch: 14 April)

Event Time Altitude Azimuth Distance (km) Brightness Sun altitude
Exits shadow 19:48:34 64° 49° (NE) 702 2.6 -23.4°
Drops below altitude 10° 19:52:40 10° 350° (N) 2,021 5.6 -23.9°
Sets 19:54:53 0° 348° (NNW) 2,934 6.6 -24.2°
